一网星座-0280星 (ONEWEB-0280 )

导读 | 豆包AI

ONEWEB-0280是英国OneWeb公司低轨卫星星座的组网卫星,于2021年7月1日发射入轨。该卫星运行在约1200公里近地轨道,属于OneWeb一期星座组网卫星,采用Ku波段通信,依托弯管式设计实现全球覆盖,为偏远地区及基础设施薄弱区域提供低延迟宽带互联网接入服务,遵循空间碎片减缓规范,寿命末期将自动离轨。

基本信息
目录编号:
48998
目录名称:
ONEWEB-0280
国际标识:
2021-060AH
轨道中心:
EARTH
卫星名称:
一网星座-0280星
卫星全名:
一网星座-0280星 (ONEWEB-0280 )
卫星状态:
在轨 (已飞行1717 天)
发射日期:
2021-07-01 UTC
国别 :
英国 (GB)
星等 :
--
轨道信息
数据来源 国际轨道数据 AOE轨道数据
星历时间 2026-03-14T05:54:11+0800
11小时前
查看轨道信息
2026-03-11T07:00:00+0800
3天前
查看轨道信息
半长轴 7575.893km 7575.886km
偏心率 0.0002019 0.0003428
轨道倾角 87.901° 87.898°
近地点辐角 93.058° 107.494°
升交点赤经 247.724° 248.311°
平近点角 267.078° 298.081°
近地点 1196.226km 1195.151km
远地点 1199.286km 1200.347km
周期 109.373分钟 109.373分钟
每日圈数 13.165946 13.165963
详细信息
平衡模式:
三轴稳定
覆盖范围:
全球
运营商:
一网卫星公司
运营商所在国:
英国
制造商(研发单位):
一网卫星公司
制造商所在国:
英国
使用方式:
暂无
卫星简介
OneWeb卫星网络由648颗重约125公斤的微型卫星组成,运行在1200公里的轨道上。 每颗卫星都能够提供至少每秒8千兆位的吞吐量,以使用其高吞吐量的Ku频段有效载荷为家庭和移动平台提供互联网接入。该卫星仍在工作。
2D轨道图
3D轨道图
轨道高度分析图
轨道倾角分析图
轨道综合分析图
查看轨道综合分析图